スキッフ-香西彗星

D/1977 C1 ( Skiff-Kosai ) 2006

English version
Home page
Updated on December 29, 2005

---------------------------------------------------------------------

・ プロフィール

・ 軌道要素

Perturbed ephemeris below is based on elements from MPC 11152. 

 Epoch = 2453960.50000 TT   T = 2453978.86738 TT
 Peri. =   26.56336         a =     3.8211067 AU
 Node  =   80.37021 J2000.0 e =     0.2684986
 Incl. =    3.20335         q =     2.7951451 AU

・ 星図

・ 光度変化

        m1 = 12 + 5 logΔ + 15 log r

        ※ 灰色の曲線は、m1 = 9.0 + 5 logΔ + 15 log r の光度曲線です。

---------------------------------------------------------------------

軌道要素はMinor Planet & Comet Ephemeris Serviceで計算したものです。
星図は StellaNavigator Ver.2.0 for Windows (アストロアーツ 編著 / アスキー出版局刊) で作成したものです。
光度グラフはComet for Windowsで作成したものです。

---------------------------------------------------------------------

Copyright(C) Seiichi Yoshida (comet@aerith.net). All rights reserved.